Hourly Weather Barra do Dande

Today, 8 May, Saturday

Time Temperature Precipitation Wind Pressure Humidity
00:00 +26°C° 1.4 mm 1 mps 759 mmHg 97%
01:00 +26°C° 0 mm 1 mps 759 mmHg 97%
02:00 +26°C° 0.4 mm 1 mps 759 mmHg 97%
03:00 +26°C° 0.4 mm 1 mps 759 mmHg 97%
04:00 +26°C° 0.4 mm 1 mps 758 mmHg 97%
05:00 +26°C° 0.2 mm 1 mps 759 mmHg 97%
06:00 +26°C° 0.2 mm 1 mps 759 mmHg 97%
07:00 +26°C° 0 mm 2 mps 760 mmHg 97%
08:00 +27°C° 0.1 mm 1 mps 760 mmHg 90%
09:00 +29°C° 0.1 mm 1 mps 760 mmHg 84%
10:00 +28°C° 0.1 mm 0 mps 760 mmHg 77%
11:00 +31°C° 0.2 mm 1 mps 760 mmHg 73%
12:00 +32°C° 0.2 mm 2 mps 759 mmHg 69%
13:00 +34°C° 0.2 mm 2 mps 758 mmHg 64%
14:00 +32°C° 0.1 mm 2 mps 758 mmHg 67%
15:00 +31°C° 0.1 mm 2 mps 758 mmHg 69%
16:00 +30°C° 0.1 mm 2 mps 757 mmHg 72%
17:00 +29°C° 0.1 mm 2 mps 758 mmHg 78%
18:00 +28°C° 0.1 mm 2 mps 758 mmHg 85%
19:00 +26°C° 0.1 mm 2 mps 758 mmHg 92%
20:00 +26°C° 0.2 mm 2 mps 759 mmHg 92%
21:00 +26°C° 0.2 mm 2 mps 759 mmHg 93%
22:00 +27°C° 0.2 mm 1 mps 760 mmHg 93%
23:00 +26°C° 0.1 mm 1 mps 760 mmHg 94%

Tomorrow, 9 May, Sunday

Time Temperature Precipitation Wind Pressure Humidity
00:00 +26°C° 0.1 mm 1 mps 759 mmHg 94%
01:00 +24°C° 0.1 mm 0 mps 759 mmHg 95%
02:00 +24°C° 0 mm 0 mps 759 mmHg 95%
03:00 +26°C° 0 mm 1 mps 758 mmHg 96%
04:00 +26°C° 0 mm 1 mps 758 mmHg 96%
05:00 +26°C° 0 mm 1 mps 759 mmHg 95%
06:00 +26°C° 0 mm 2 mps 759 mmHg 95%
07:00 +26°C° 0 mm 2 mps 759 mmHg 94%
08:00 +28°C° 0 mm 1 mps 759 mmHg 87%
09:00 +29°C° 0 mm 1 mps 760 mmHg 79%
10:00 +31°C° 0 mm 1 mps 760 mmHg 71%
11:00 +31°C° 0.1 mm 1 mps 759 mmHg 70%
12:00 +32°C° 0.1 mm 2 mps 759 mmHg 69%
13:00 +32°C° 0.1 mm 2 mps 758 mmHg 67%
14:00 +31°C° 0.1 mm 2 mps 758 mmHg 71%
15:00 +31°C° 0.1 mm 2 mps 757 mmHg 74%
16:00 +30°C° 0.1 mm 2 mps 757 mmHg 77%
17:00 +29°C° 0.1 mm 2 mps 758 mmHg 82%
18:00 +28°C° 0.1 mm 2 mps 758 mmHg 87%
19:00 +26°C° 0.1 mm 2 mps 758 mmHg 92%
20:00 +26°C° 0.1 mm 1 mps 759 mmHg 93%
21:00 +26°C° 0.1 mm 1 mps 759 mmHg 94%
22:00 +24°C° 0.1 mm 0 mps 760 mmHg 94%
23:00 +24°C° 0 mm 0 mps 759 mmHg 95%

Day after tomorrow, 10 May, Monday

Time Temperature Precipitation Wind Pressure Humidity
00:00 +26°C° 0 mm 1 mps 759 mmHg 95%
01:00 +25°C° 0 mm 1 mps 759 mmHg 96%
02:00 +25°C° 0 mm 1 mps 759 mmHg 96%
03:00 +25°C° 0 mm 1 mps 758 mmHg 96%
04:00 +25°C° 0 mm 1 mps 758 mmHg 97%
05:00 +25°C° 0 mm 1 mps 759 mmHg 96%
06:00 +25°C° 0 mm 2 mps 759 mmHg 96%
07:00 +26°C° 0 mm 2 mps 760 mmHg 95%
08:00 +27°C° 0 mm 2 mps 760 mmHg 89%
09:00 +29°C° 0 mm 1 mps 760 mmHg 82%
10:00 +30°C° 0 mm 1 mps 760 mmHg 76%
11:00 +31°C° 0 mm 1 mps 760 mmHg 72%
12:00 +32°C° 0 mm 1 mps 759 mmHg 68%
13:00 +32°C° 0 mm 1 mps 758 mmHg 64%
14:00 +32°C° 0 mm 2 mps 758 mmHg 67%
15:00 +31°C° 0 mm 3 mps 757 mmHg 70%
16:00 +31°C° 0 mm 3 mps 757 mmHg 73%
17:00 +30°C° 0.1 mm 3 mps 757 mmHg 80%
18:00 +28°C° 0.1 mm 3 mps 758 mmHg 86%
19:00 +27°C° 0.1 mm 3 mps 758 mmHg 93%
20:00 +26°C° 0 mm 2 mps 759 mmHg 94%
21:00 +26°C° 0 mm 2 mps 759 mmHg 95%
22:00 +26°C° 0 mm 2 mps 759 mmHg 96%
23:00 +26°C° 0 mm 2 mps 759 mmHg 97%

11 May, Tuesday

Time Temperature Precipitation Wind Pressure Humidity
00:00 +26°C° 0 mm 2 mps 759 mmHg 97%
01:00 +25°C° 0 mm 1 mps 759 mmHg 98%
02:00 +25°C° 0 mm 2 mps 759 mmHg 98%
03:00 +25°C° 0 mm 2 mps 759 mmHg 98%
04:00 +25°C° 0 mm 2 mps 759 mmHg 98%
05:00 +25°C° 0 mm 2 mps 759 mmHg 97%
06:00 +25°C° 0 mm 2 mps 760 mmHg 96%
07:00 +25°C° 0 mm 2 mps 760 mmHg 95%
08:00 +27°C° 0 mm 2 mps 760 mmHg 87%
09:00 +29°C° 0 mm 2 mps 760 mmHg 80%
10:00 +31°C° 0 mm 2 mps 761 mmHg 72%
11:00 +32°C° 0 mm 2 mps 760 mmHg 66%
12:00 +35°C° 0 mm 2 mps 759 mmHg 60%
13:00 +36°C° 0 mm 2 mps 759 mmHg 54%
14:00 +35°C° 0 mm 3 mps 758 mmHg 58%
15:00 +34°C° 0 mm 4 mps 758 mmHg 62%
16:00 +33°C° 0 mm 4 mps 757 mmHg 67%
17:00 +32°C° 0.1 mm 4 mps 758 mmHg 75%
18:00 +29°C° 0.1 mm 4 mps 758 mmHg 83%
19:00 +27°C° 0.1 mm 3 mps 758 mmHg 91%
20:00 +27°C° 0 mm 3 mps 759 mmHg 92%
21:00 +27°C° 0 mm 3 mps 759 mmHg 93%
22:00 +26°C° 0 mm 3 mps 759 mmHg 94%
23:00 +26°C° 0 mm 3 mps 759 mmHg 95%

12 May, Wednesday

Time Temperature Precipitation Wind Pressure Humidity
00:00 +26°C° 0 mm 3 mps 759 mmHg 96%
01:00 +25°C° 0 mm 3 mps 759 mmHg 97%
02:00 +25°C° 0 mm 3 mps 759 mmHg 97%
03:00 +25°C° 0 mm 3 mps 759 mmHg 97%
04:00 +25°C° 0 mm 3 mps 759 mmHg 98%
05:00 +25°C° 0 mm 3 mps 759 mmHg 97%
06:00 +25°C° 0 mm 3 mps 759 mmHg 96%
07:00 +25°C° 0 mm 2 mps 760 mmHg 95%
08:00 +27°C° 0 mm 2 mps 760 mmHg 86%
09:00 +29°C° 0 mm 2 mps 760 mmHg 77%
10:00 +31°C° 0 mm 2 mps 760 mmHg 68%
11:00 +34°C° 0 mm 2 mps 759 mmHg 64%
12:00 +35°C° 0 mm 3 mps 759 mmHg 59%
13:00 +36°C° 0 mm 3 mps 758 mmHg 55%
14:00 +34°C° 0.1 mm 4 mps 758 mmHg 61%
15:00 +33°C° 0.1 mm 4 mps 757 mmHg 67%
16:00 +32°C° 0.1 mm 4 mps 757 mmHg 73%
17:00 +29°C° 0.1 mm 4 mps 757 mmHg 80%
18:00 +28°C° 0.1 mm 4 mps 758 mmHg 86%
19:00 +27°C° 0.1 mm 3 mps 758 mmHg 92%
20:00 +27°C° 0 mm 3 mps 758 mmHg 93%
21:00 +26°C° 0 mm 3 mps 759 mmHg 94%
22:00 +26°C° 0 mm 2 mps 759 mmHg 95%
23:00 +26°C° 0 mm 2 mps 759 mmHg 96%

13 May, Thursday

Time Temperature Precipitation Wind Pressure Humidity
00:00 +26°C° 0 mm 2 mps 759 mmHg 96%
01:00 +26°C° 0 mm 2 mps 758 mmHg 96%
02:00 +25°C° 0 mm 2 mps 758 mmHg 97%
03:00 +25°C° 0 mm 2 mps 758 mmHg 98%
04:00 +25°C° 0 mm 2 mps 758 mmHg 98%
05:00 +25°C° 0 mm 2 mps 758 mmHg 97%
06:00 +25°C° 0 mm 2 mps 758 mmHg 96%
07:00 +25°C° 0 mm 3 mps 759 mmHg 95%
08:00 +27°C° 0 mm 2 mps 759 mmHg 86%
09:00 +29°C° 0 mm 2 mps 759 mmHg 77%
10:00 +31°C° 0 mm 2 mps 759 mmHg 68%
11:00 +34°C° 0 mm 2 mps 758 mmHg 63%
12:00 +35°C° 0 mm 2 mps 758 mmHg 57%
13:00 +36°C° 0 mm 2 mps 757 mmHg 51%
14:00 +35°C° 0 mm 3 mps 757 mmHg 57%
15:00 +34°C° 0 mm 4 mps 756 mmHg 62%
16:00 +33°C° 0 mm 4 mps 756 mmHg 67%
17:00 +30°C° 0.1 mm 4 mps 756 mmHg 75%
18:00 +28°C° 0.1 mm 3 mps 757 mmHg 84%
19:00 +27°C° 0.1 mm 3 mps 757 mmHg 93%
20:00 +26°C° 0 mm 2 mps 757 mmHg 93%
21:00 +26°C° 0 mm 2 mps 758 mmHg 94%
22:00 +26°C° 0 mm 2 mps 758 mmHg 95%
23:00 +26°C° 0 mm 2 mps 758 mmHg 96%
Show more